Wind_Speed
8 8 7 5 4 6 5 6 8 8 6 6 5 5 6 6 6 6 6 5 8 9
10 9 8 6 6 6 7 10 9 8 6 5 6 5 6 7 7 6 3 2 3 5
10 10 11 8 7 8 10 9 9 7 6 6 6 5 7 7 8 6 4 3 4 7
13 12 11 9 9 9 12 10 8 7 7 7 5 3 5 5 5 6 4 3 4 4
14 11 9 10 11 12 11 11 9 7 7 6 6 5 4 4 5 4 5 5 6 4
15 10 9 11 12 13 11 10 9 7 12 8 8 6 6 3 2 6 5 5 5 7
12 11 11 11 13 12 12 10 10 12 13 9 9 6 5 3 3 3 7 7 11 9
15 11 11 11 11 7 12 13 17 13 11 10 7 6 5 3 3 4 11 15 15 12
15 11 11 12 10 9 11 17 13 11 14 9 10 6 5 5 6 8 13 17 16 13
18 14 13 12 11 11 17 17 15 15 12 12 11 6 7 8 11 13 15 16 15 15
19 15 15 15 13 13 15 16 16 14 11 14 11 7 8 12 13 16 17 15 16 19
19 16 19 17 16 15 16 17 15 16 13 14 12 9 11 14 15 17 17 16 17 19
23 20 21 18 16 13 13 18 20 16 14 13 12 9 11 14 19 20 19 18 18 16
23 21 18 17 16 15 16 18 19 17 13 12 11 10 12 14 19 21 20 21 17 20
Wind_Direction
134 141 128 150 150 169 178 187 190 178 195 205 210 219 199 205 206 221 224 225 222 236
142 148 148 153 144 150 158 149 160 174 179 189 200 215 204 204 208 217 175 164 177 184
166 167 158 151 153 151 147 162 160 162 177 177 187 180 195 216 216 165 144 123 129 165
171 158 153 151 154 148 150 154 150 161 159 163 169 197 202 187 179 169 159 132 100 107
168 156 153 160 160 171 160 168 149 148 144 152 128 119 150 178 197 194 148 133 106 99
142 146 162 163 166 166 167 173 167 152 132 129 112 113 99 85 99 111 138 114 131 110
148 156 157 164 178 179 180 168 157 135 120 115 108 100 96 96 74 110 127 146 149 145
150 155 162 178 176 197 174 150 140 129 119 111 115 115 117 130 84 114 112 116 135 131
145 158 164 168 167 119 167 147 138 127 127 129 123 127 125 108 109 117 121 120 115 114
154 157 161 160 156 141 141 144 135 132 132 129 126 106 86 103 122 124 127 129 121 117
157 162 162 162 161 153 148 143 139 141 136 140 131 100 86 116 120 120 126 127 126 127
158 151 161 160 161 163 160 154 153 145 134 142 133 105 109 125 128 119 125 131 134 134
162 157 162 159 158 156 152 155 155 143 137 139 136 114 121 135 134 123 125 124 130 136
164 155 158 156 152 147 146 143 144 137 131 136 144 123 133 143 135 132 132 132 131 141
Height
713 716 719 721 723 724 725 727 728 730 731 731 733 734 733 735 736 736 737 736 736 738
714 717 720 722 723 724 725 726 728 729 730 731 732 732 734 734 734 735 735 736 736 738
715 717 720 721 722 724 726 727 728 729 729 730 730 731 732 733 733 734 734 735 736 737
714 717 719 720 722 724 726 727 728 728 729 729 730 731 731 732 733 733 734 736 736 735
715 717 718 720 721 724 725 727 727 728 729 729 731 732 731 731 733 732 734 735 736 735
714 716 718 720 721 723 725 726 728 728 729 730 732 732 732 731 732 732 732 733 735 735
714 716 718 720 722 723 725 726 728 729 729 731 732 733 732 732 732 732 733 733 735 736
713 716 718 720 722 723 724 726 728 729 731 732 733 734 733 733 732 733 732 734 736 738
713 716 718 720 722 724 724 726 729 730 732 732 734 735 734 733 733 734 734 735 738 739
713 716 718 720 722 724 725 728 730 731 732 734 735 736 735 735 735 735 736 738 739 741
712 715 718 720 722 724 726 728 730 732 733 735 736 737 736 736 737 737 739 740 742 743
712 715 717 720 723 725 727 729 731 733 734 736 738 739 738 738 739 740 742 744 746 747
711 714 717 720 723 726 728 729 731 733 735 737 738 740 740 741 741 743 745 748 750 752
710 714 717 720 723 726 728 730 732 734 737 738 739 741 742 744 744 746 749 751 754 756